Time,TemperatureF,DewpointF,PressureIn,WindDirection,WindDirectionDegrees,WindSpeedMPH,WindSpeedGustMPH,Humidity,HourlyPrecipIn,Conditions,Clouds,dailyrainin,SoftwareType,DateUTC
2013-05-27 00:00:00,61.0,27.6,29.57,NNE,28,1.0,2.0,28,0.00,,,0.00,Wunderground v.1.15,2013-05-27 06:00:00,
2013-05-27 00:05:00,60.9,27.5,29.55,NNE,28,1.0,2.0,28,0.00,,,0.00,Wunderground v.1.15,2013-05-27 06:05:00,
2013-05-27 00:15:00,61.6,27.3,29.55,NE,41,1.0,4.0,27,0.00,,,0.00,Wunderground v.1.15,2013-05-27 06:15:00,
2013-05-27 00:20:00,61.3,27.9,29.55,NE,48,1.0,1.0,28,0.00,,,0.00,Wunderground v.1.15,2013-05-27 06:20:00,
2013-05-27 00:30:00,59.3,27.0,29.56,NE,38,2.0,2.0,29,0.00,,,0.00,Wunderground v.1.15,2013-05-27 06:30:00,
2013-05-27 00:35:00,58.6,28.0,29.56,NE,49,3.0,4.0,31,0.00,,,0.00,Wunderground v.1.15,2013-05-27 06:35:00,
2013-05-27 00:45:00,56.9,25.7,29.57,NNE,31,2.0,2.0,30,0.00,,,0.00,Wunderground v.1.15,2013-05-27 06:45:00,
2013-05-27 00:50:00,56.9,25.7,29.57,NNE,31,1.0,1.0,30,0.00,,,0.00,Wunderground v.1.15,2013-05-27 06:50:00,
2013-05-27 00:55:00,56.3,26.8,29.57,NNE,30,0.0,1.0,32,0.00,,,0.00,Wunderground v.1.15,2013-05-27 06:55:00,
2013-05-27 01:00:00,55.8,25.6,29.57,NNE,31,0.0,0.0,31,0.00,,,0.00,Wunderground v.1.15,2013-05-27 07:00:00,
2013-05-27 01:05:00,54.8,26.9,29.57,NNE,30,0.0,0.0,34,0.00,,,0.00,Wunderground v.1.15,2013-05-27 07:05:00,
2013-05-27 01:15:00,53.1,27.5,29.58,NNE,30,0.0,0.0,37,0.00,,,0.00,Wunderground v.1.15,2013-05-27 07:15:00,
2013-05-27 01:20:00,52.6,25.7,29.58,NNE,30,0.0,0.0,35,0.00,,,0.00,Wunderground v.1.15,2013-05-27 07:20:00,
2013-05-27 01:25:00,52.5,26.9,29.58,NNE,30,0.0,0.0,37,0.00,,,0.00,Wunderground v.1.15,2013-05-27 07:25:00,
2013-05-27 01:30:00,52.7,24.4,29.58,NNE,30,1.0,3.0,33,0.00,,,0.00,Wunderground v.1.15,2013-05-27 07:30:00,
2013-05-27 01:35:00,52.7,25.1,29.58,NNE,32,1.0,3.0,34,0.00,,,0.00,Wunderground v.1.15,2013-05-27 07:35:00,
2013-05-27 01:45:00,51.6,26.1,29.58,NNE,32,0.0,1.0,37,0.00,,,0.00,Wunderground v.1.15,2013-05-27 07:45:00,
2013-05-27 01:50:00,51.2,26.4,29.59,NNE,30,1.0,2.0,38,0.00,,,0.00,Wunderground v.1.15,2013-05-27 07:50:00,
2013-05-27 01:55:00,50.3,26.9,29.59,WSW,242,1.0,2.0,40,0.00,,,0.00,Wunderground v.1.15,2013-05-27 07:55:00,
2013-05-27 02:00:00,49.5,27.3,29.59,NNE,15,2.0,4.0,42,0.00,,,0.00,Wunderground v.1.15,2013-05-27 08:00:00,
2013-05-27 02:05:00,48.5,27.6,29.59,NNE,15,2.0,4.0,44,0.00,,,0.00,Wunderground v.1.15,2013-05-27 08:05:00,
2013-05-27 02:15:00,48.2,26.2,29.60,WNW,283,1.0,2.0,42,0.00,,,0.00,Wunderground v.1.15,2013-05-27 08:15:00,
2013-05-27 02:20:00,48.5,28.1,29.59,WNW,282,0.0,0.0,45,0.00,,,0.00,Wunderground v.1.15,2013-05-27 08:20:00,
2013-05-27 02:25:00,48.6,27.1,29.59,WNW,282,0.0,0.0,43,0.00,,,0.00,Wunderground v.1.15,2013-05-27 08:25:00,
2013-05-27 02:30:00,48.9,26.8,29.59,WNW,282,0.0,0.0,42,0.00,,,0.00,Wunderground v.1.15,2013-05-27 08:30:00,
2013-05-27 02:35:00,49.3,26.6,29.59,West,281,0.0,0.0,41,0.00,,,0.00,Wunderground v.1.15,2013-05-27 08:35:00,
2013-05-27 02:40:00,50.1,27.3,29.58,NE,55,0.0,1.0,41,0.00,,,0.00,Wunderground v.1.15,2013-05-27 08:40:00,
2013-05-27 02:45:00,50.5,27.0,29.58,NE,54,1.0,1.0,40,0.00,,,0.00,Wunderground v.1.15,2013-05-27 08:45:00,
2013-05-27 02:50:00,50.5,28.8,29.58,NE,53,1.0,1.0,43,0.00,,,0.00,Wunderground v.1.15,2013-05-27 08:50:00,
2013-05-27 03:00:00,49.5,27.9,29.59,NE,40,1.0,2.0,43,0.00,,,0.00,Wunderground v.1.15,2013-05-27 09:00:00,
2013-05-27 03:05:00,49.2,27.6,29.60,NE,40,1.0,2.0,43,0.00,,,0.00,Wunderground v.1.15,2013-05-27 09:05:00,
2013-05-27 03:15:00,48.5,26.4,29.60,NE,40,0.0,1.0,42,0.00,,,0.00,Wunderground v.1.15,2013-05-27 09:15:00,
2013-05-27 03:25:00,47.6,27.8,29.60,NE,41,0.0,0.0,46,0.00,,,0.00,Wunderground v.1.15,2013-05-27 09:25:00,
2013-05-27 03:30:00,47.0,27.3,29.62,NE,40,0.0,0.0,46,0.00,,,0.00,Wunderground v.1.15,2013-05-27 09:30:00,
2013-05-27 03:35:00,46.6,27.9,29.61,NE,40,0.0,0.0,48,0.00,,,0.00,Wunderground v.1.15,2013-05-27 09:35:00,
2013-05-27 03:40:00,46.5,27.8,29.62,NE,40,0.0,0.0,48,0.00,,,0.00,Wunderground v.1.15,2013-05-27 09:40:00,
2013-05-27 03:45:00,46.5,27.3,29.61,NE,40,0.0,0.0,47,0.00,,,0.00,Wunderground v.1.15,2013-05-27 09:45:00,
2013-05-27 03:55:00,45.9,27.8,29.62,NE,40,0.0,0.0,49,0.00,,,0.00,Wunderground v.1.15,2013-05-27 09:55:00,
2013-05-27 04:00:00,45.8,28.2,29.62,NE,40,0.0,2.0,50,0.00,,,0.00,Wunderground v.1.15,2013-05-27 10:00:00,
2013-05-27 04:05:00,45.8,28.7,29.63,NE,40,1.0,2.0,51,0.00,,,0.00,Wunderground v.1.15,2013-05-27 10:05:00,
2013-05-27 04:10:00,45.8,29.6,29.63,NE,40,0.0,0.0,53,0.00,,,0.00,Wunderground v.1.15,2013-05-27 10:10:00,
2013-05-27 04:15:00,45.3,29.2,29.64,NE,40,0.0,0.0,53,0.00,,,0.00,Wunderground v.1.15,2013-05-27 10:15:00,
2013-05-27 04:25:00,45.0,28.9,29.64,NE,40,0.0,0.0,53,0.00,,,0.00,Wunderground v.1.15,2013-05-27 10:25:00,
2013-05-27 04:30:00,45.0,28.4,29.64,NE,40,0.0,0.0,52,0.00,,,0.00,Wunderground v.1.15,2013-05-27 10:30:00,
2013-05-27 04:40:00,45.0,28.4,29.64,NE,40,0.0,0.0,52,0.00,,,0.00,Wunderground v.1.15,2013-05-27 10:40:00,
2013-05-27 04:45:00,44.9,28.3,29.64,NW,314,0.0,1.0,52,0.00,,,0.00,Wunderground v.1.15,2013-05-27 10:45:00,
2013-05-27 04:50:00,45.0,29.3,29.64,NW,314,1.0,1.0,54,0.00,,,0.00,Wunderground v.1.15,2013-05-27 10:50:00,
2013-05-27 05:00:00,45.1,29.9,29.64,NW,314,1.0,1.0,55,0.00,,,0.00,Wunderground v.1.15,2013-05-27 11:00:00,
2013-05-27 05:05:00,45.0,29.8,29.65,NW,314,1.0,1.0,55,0.00,,,0.00,Wunderground v.1.15,2013-05-27 11:05:00,
2013-05-27 05:15:00,45.0,29.3,29.64,NW,314,0.0,1.0,54,0.00,,,0.00,Wunderground v.1.15,2013-05-27 11:15:00,
2013-05-27 05:20:00,44.9,29.7,29.65,NW,314,0.0,0.0,55,0.00,,,0.00,Wunderground v.1.15,2013-05-27 11:20:00,
2013-05-27 05:25:00,44.6,29.4,29.65,NW,314,0.0,0.0,55,0.00,,,0.00,Wunderground v.1.15,2013-05-27 11:25:00,
2013-05-27 05:30:00,44.8,30.0,29.65,NW,314,0.0,0.0,56,0.00,,,0.00,Wunderground v.1.15,2013-05-27 11:30:00,
2013-05-27 05:40:00,44.8,29.6,29.65,NW,314,0.0,0.0,55,0.00,,,0.00,Wunderground v.1.15,2013-05-27 11:40:00,
2013-05-27 05:45:00,44.7,30.0,29.65,NW,314,0.0,0.0,56,0.00,,,0.00,Wunderground v.1.15,2013-05-27 11:45:00,
2013-05-27 05:50:00,44.3,29.6,29.66,NW,314,0.0,0.0,56,0.00,,,0.00,Wunderground v.1.15,2013-05-27 11:50:00,
2013-05-27 06:00:00,42.9,30.0,29.67,NW,314,1.0,1.0,60,0.00,,,0.00,Wunderground v.1.15,2013-05-27 12:00:00,
2013-05-27 06:05:00,42.3,29.4,29.68,NW,314,0.0,1.0,60,0.00,,,0.00,Wunderground v.1.15,2013-05-27 12:05:00,
2013-05-27 06:15:00,41.9,29.0,29.68,NW,314,0.0,0.0,60,0.00,,,0.00,Wunderground v.1.15,2013-05-27 12:15:00,
2013-05-27 06:20:00,41.9,28.6,29.68,NW,314,0.0,0.0,59,0.00,,,0.00,Wunderground v.1.15,2013-05-27 12:20:00,
2013-05-27 06:25:00,42.3,28.6,29.69,NNW,336,1.0,2.0,58,0.00,,,0.00,Wunderground v.1.15,2013-05-27 12:25:00,
2013-05-27 06:35:00,43.6,30.6,29.68,NW,321,2.0,4.0,60,0.00,,,0.00,Wunderground v.1.15,2013-05-27 12:35:00,
2013-05-27 06:40:00,44.5,30.2,29.68,NW,321,1.0,1.0,57,0.00,,,0.00,Wunderground v.1.15,2013-05-27 12:40:00,
2013-05-27 06:45:00,45.4,30.2,29.69,NW,321,0.0,1.0,55,0.00,,,0.00,Wunderground v.1.15,2013-05-27 12:45:00,
2013-05-27 06:50:00,45.7,30.9,29.68,NW,321,0.0,0.0,56,0.00,,,0.00,Wunderground v.1.15,2013-05-27 12:50:00,
2013-05-27 06:55:00,45.9,30.2,29.68,NW,321,0.0,0.0,54,0.00,,,0.00,Wunderground v.1.15,2013-05-27 12:55:00,
2013-05-27 07:05:00,46.6,29.9,29.70,NW,321,0.0,0.0,52,0.00,,,0.00,Wunderground v.1.15,2013-05-27 13:05:00,
2013-05-27 07:15:00,48.2,29.4,29.69,NW,321,0.0,0.0,48,0.00,,,0.00,Wunderground v.1.15,2013-05-27 13:15:00,
2013-05-27 07:20:00,49.0,28.6,29.69,NW,321,0.0,0.0,45,0.00,,,0.00,Wunderground v.1.15,2013-05-27 13:20:00,
2013-05-27 07:25:00,49.4,26.7,29.70,NW,321,0.0,1.0,41,0.00,,,0.00,Wunderground v.1.15,2013-05-27 13:25:00,
2013-05-27 07:35:00,50.7,28.4,29.69,NW,321,0.0,0.0,42,0.00,,,0.00,Wunderground v.1.15,2013-05-27 13:35:00,
2013-05-27 07:40:00,52.1,29.7,29.68,NW,321,0.0,0.0,42,0.00,,,0.00,Wunderground v.1.15,2013-05-27 13:40:00,
2013-05-27 07:45:00,53.6,29.8,29.68,NW,321,0.0,0.0,40,0.00,,,0.00,Wunderground v.1.15,2013-05-27 13:45:00,
2013-05-27 07:50:00,55.4,30.2,29.67,NW,321,0.0,0.0,38,0.00,,,0.00,Wunderground v.1.15,2013-05-27 13:50:00,
2013-05-27 07:55:00,56.7,29.3,29.66,NW,321,0.0,0.0,35,0.00,,,0.00,Wunderground v.1.15,2013-05-27 13:55:00,
2013-05-27 08:05:00,58.7,29.6,29.67,NW,321,0.0,0.0,33,0.00,,,0.00,Wunderground v.1.15,2013-05-27 14:05:00,
2013-05-27 08:15:00,60.4,30.4,29.67,NW,322,0.0,0.0,32,0.00,,,0.00,Wunderground v.1.15,2013-05-27 14:15:00,
2013-05-27 08:25:00,60.8,30.7,29.67,ENE,69,0.0,0.0,32,0.00,,,0.00,Wunderground v.1.15,2013-05-27 14:25:00,
2013-05-27 08:30:00,61.1,31.8,29.66,ENE,69,1.0,1.0,33,0.00,,,0.00,Wunderground v.1.15,2013-05-27 14:30:00,
2013-05-27 08:40:00,62.6,32.3,29.66,ENE,71,0.0,1.0,32,0.00,,,0.00,Wunderground v.1.15,2013-05-27 14:40:00,
2013-05-27 08:45:00,63.6,31.6,29.66,East,85,1.0,1.0,30,0.00,,,0.00,Wunderground v.1.15,2013-05-27 14:45:00,
2013-05-27 08:50:00,64.0,31.9,29.65,East,86,1.0,2.0,30,0.00,,,0.00,Wunderground v.1.15,2013-05-27 14:50:00,
2013-05-27 08:55:00,64.6,32.4,29.65,East,86,1.0,2.0,30,0.00,,,0.00,Wunderground v.1.15,2013-05-27 14:55:00,
2013-05-27 09:00:00,64.8,32.6,29.65,ESE,119,1.0,2.0,30,0.00,,,0.00,Wunderground v.1.15,2013-05-27 15:00:00,
2013-05-27 09:05:00,65.4,31.4,29.67,ESE,103,1.0,3.0,28,0.00,,,0.00,Wunderground v.1.15,2013-05-27 15:05:00,
2013-05-27 09:15:00,65.7,29.8,29.66,SSE,167,1.0,1.0,26,0.00,,,0.00,Wunderground v.1.15,2013-05-27 15:15:00,
2013-05-27 09:20:00,66.0,31.0,29.66,WSW,244,1.0,1.0,27,0.00,,,0.00,Wunderground v.1.15,2013-05-27 15:20:00,
2013-05-27 09:25:00,66.5,29.6,29.66,SE,133,1.0,1.0,25,0.00,,,0.00,Wunderground v.1.15,2013-05-27 15:25:00,
2013-05-27 09:30:00,66.9,29.9,29.65,SSW,199,1.0,1.0,25,0.00,,,0.00,Wunderground v.1.15,2013-05-27 15:30:00,
2013-05-27 09:40:00,68.9,29.5,29.64,ESE,102,0.0,0.0,23,0.00,,,0.00,Wunderground v.1.15,2013-05-27 15:40:00,
2013-05-27 09:45:00,70.1,29.5,29.63,NE,55,0.0,2.0,22,0.00,,,0.00,Wunderground v.1.15,2013-05-27 15:45:00,
2013-05-27 09:50:00,71.1,30.3,29.63,ESE,113,1.0,1.0,22,0.00,,,0.00,Wunderground v.1.15,2013-05-27 15:50:00,
2013-05-27 09:55:00,71.7,30.8,29.62,East,95,1.0,1.0,22,0.00,,,0.00,Wunderground v.1.15,2013-05-27 15:55:00,
2013-05-27 10:00:00,72.3,32.4,29.62,East,95,1.0,1.0,23,0.00,,,0.00,Wunderground v.1.15,2013-05-27 16:00:00,
2013-05-27 10:05:00,72.7,31.6,29.63,East,99,0.0,1.0,22,0.00,,,0.00,Wunderground v.1.15,2013-05-27 16:05:00,
2013-05-27 10:15:00,74.1,31.6,29.63,East,99,1.0,1.0,21,0.00,,,0.00,Wunderground v.1.15,2013-05-27 16:15:00,
2013-05-27 10:20:00,74.8,31.0,29.62,East,99,0.0,0.0,20,0.00,,,0.00,Wunderground v.1.15,2013-05-27 16:20:00,
2013-05-27 10:25:00,75.5,34.0,29.62,West,280,1.0,1.0,22,0.00,,,0.00,Wunderground v.1.15,2013-05-27 16:25:00,
2013-05-27 10:30:00,76.0,33.2,29.61,North,350,1.0,1.0,21,0.00,,,0.00,Wunderground v.1.15,2013-05-27 16:30:00,
2013-05-27 10:35:00,76.0,33.2,29.62,WNW,289,1.0,3.0,21,0.00,,,0.00,Wunderground v.1.15,2013-05-27 16:35:00,
2013-05-27 10:45:00,76.0,29.4,29.62,NE,45,2.0,2.0,18,0.00,,,0.00,Wunderground v.1.15,2013-05-27 16:45:00,
2013-05-27 10:50:00,76.0,30.7,29.61,North,355,2.0,3.0,19,0.00,,,0.00,Wunderground v.1.15,2013-05-27 16:50:00,
2013-05-27 10:55:00,76.0,32.0,29.61,NW,311,2.0,3.0,20,0.00,,,0.00,Wunderground v.1.15,2013-05-27 16:55:00,
2013-05-27 11:00:00,75.4,30.2,29.61,South,180,2.0,4.0,19,0.00,,,0.00,Wunderground v.1.15,2013-05-27 17:00:00,
2013-05-27 11:05:00,75.1,32.5,29.63,SSW,196,2.0,4.0,21,0.00,,,0.00,Wunderground v.1.15,2013-05-27 17:05:00,
2013-05-27 11:15:00,76.6,32.5,29.62,NNW,342,2.0,4.0,20,0.00,,,0.00,Wunderground v.1.15,2013-05-27 17:15:00,
2013-05-27 11:20:00,77.0,31.6,29.61,NE,34,2.0,2.0,19,0.00,,,0.00,Wunderground v.1.15,2013-05-27 17:20:00,
2013-05-27 11:25:00,77.4,33.2,29.61,West,260,2.0,3.0,20,0.00,,,0.00,Wunderground v.1.15,2013-05-27 17:25:00,
2013-05-27 11:30:00,77.6,33.3,29.61,NNW,337,2.0,4.0,20,0.00,,,0.00,Wunderground v.1.15,2013-05-27 17:30:00,
2013-05-27 11:40:00,77.8,32.2,29.61,West,267,2.0,2.0,19,0.00,,,0.00,Wunderground v.1.15,2013-05-27 17:40:00,
2013-05-27 11:45:00,78.1,33.7,29.61,NE,38,1.0,2.0,20,0.00,,,0.00,Wunderground v.1.15,2013-05-27 17:45:00,
2013-05-27 11:50:00,78.4,32.7,29.60,NNE,30,1.0,1.0,19,0.00,,,0.00,Wunderground v.1.15,2013-05-27 17:50:00,
2013-05-27 11:55:00,78.4,34.0,29.59,WSW,252,2.0,5.0,20,0.00,,,0.00,Wunderground v.1.15,2013-05-27 17:55:00,
2013-05-27 12:00:00,78.1,33.7,29.60,ENE,60,2.0,2.0,20,0.00,,,0.00,Wunderground v.1.15,2013-05-27 18:00:00,
2013-05-27 12:05:00,79.2,33.4,29.61,NE,47,4.0,8.0,19,0.00,,,0.00,Wunderground v.1.15,2013-05-27 18:05:00,
2013-05-27 12:15:00,80.5,33.1,29.60,NNE,28,5.0,5.0,18,0.00,,,0.00,Wunderground v.1.15,2013-05-27 18:15:00,
2013-05-27 12:20:00,80.9,34.8,29.60,West,259,3.0,5.0,19,0.00,,,0.00,Wunderground v.1.15,2013-05-27 18:20:00,
2013-05-27 12:25:00,80.8,33.3,29.60,SW,236,6.0,6.0,18,0.00,,,0.00,Wunderground v.1.15,2013-05-27 18:25:00,
2013-05-27 12:30:00,80.2,35.5,29.59,West,260,7.0,10.0,20,0.00,,,0.00,Wunderground v.1.15,2013-05-27 18:30:00,
2013-05-27 12:35:00,80.3,36.8,29.59,West,271,8.0,16.0,21,0.00,,,0.00,Wunderground v.1.15,2013-05-27 18:35:00,
2013-05-27 12:40:00,80.3,34.3,29.59,West,271,10.0,13.0,19,0.00,,,0.00,Wunderground v.1.15,2013-05-27 18:40:00,
2013-05-27 12:45:00,80.2,34.2,29.58,SW,229,10.0,13.0,19,0.00,,,0.00,Wunderground v.1.15,2013-05-27 18:45:00,
2013-05-27 12:50:00,80.4,34.3,29.58,SW,221,9.0,10.0,19,0.00,,,0.00,Wunderground v.1.15,2013-05-27 18:50:00,
2013-05-27 12:55:00,80.9,34.8,29.58,SSW,211,10.0,12.0,19,0.00,,,0.00,Wunderground v.1.15,2013-05-27 18:55:00,
2013-05-27 13:00:00,80.5,33.1,29.57,WSW,248,12.0,15.0,18,0.00,,,0.00,Wunderground v.1.15,2013-05-27 19:00:00,
2013-05-27 13:05:00,80.9,34.8,29.60,WNW,283,12.0,15.0,19,0.00,,,0.00,Wunderground v.1.15,2013-05-27 19:05:00,
2013-05-27 13:15:00,81.3,33.7,29.60,West,263,12.0,14.0,18,0.00,,,0.00,Wunderground v.1.15,2013-05-27 19:15:00,
2013-05-27 13:20:00,81.7,35.4,29.60,WNW,300,11.0,11.0,19,0.00,,,0.00,Wunderground v.1.15,2013-05-27 19:20:00,
2013-05-27 13:25:00,82.1,34.4,29.59,WSW,256,9.0,15.0,18,0.00,,,0.00,Wunderground v.1.15,2013-05-27 19:25:00,
2013-05-27 13:30:00,82.2,34.5,29.59,WSW,244,12.0,12.0,18,0.00,,,0.00,Wunderground v.1.15,2013-05-27 19:30:00,
2013-05-27 13:40:00,81.6,34.0,29.59,West,271,14.0,15.0,18,0.00,,,0.00,Wunderground v.1.15,2013-05-27 19:40:00,
2013-05-27 13:45:00,81.7,35.4,29.59,WSW,258,13.0,15.0,19,0.00,,,0.00,Wunderground v.1.15,2013-05-27 19:45:00,
2013-05-27 13:55:00,82.3,33.1,29.58,WSW,254,10.0,17.0,17,0.00,,,0.00,Wunderground v.1.15,2013-05-27 19:55:00,
2013-05-27 14:00:00,82.4,33.2,29.58,West,280,12.0,15.0,17,0.00,,,0.00,Wunderground v.1.15,2013-05-27 20:00:00,
2013-05-27 14:05:00,82.2,33.0,29.58,NW,317,11.0,15.0,17,0.00,,,0.00,Wunderground v.1.15,2013-05-27 20:05:00,
2013-05-27 14:15:00,82.0,34.3,29.58,WSW,245,10.0,14.0,18,0.00,,,0.00,Wunderground v.1.15,2013-05-27 20:15:00,
2013-05-27 14:25:00,82.7,36.2,29.57,SW,232,10.0,11.0,19,0.00,,,0.00,Wunderground v.1.15,2013-05-27 20:25:00,
2013-05-27 14:30:00,83.3,35.4,29.56,SW,233,8.0,15.0,18,0.00,,,0.00,Wunderground v.1.15,2013-05-27 20:30:00,
2013-05-27 14:35:00,82.5,33.3,29.56,WNW,292,11.0,15.0,17,0.00,,,0.00,Wunderground v.1.15,2013-05-27 20:35:00,
2013-05-27 14:40:00,82.8,34.9,29.56,SW,228,12.0,12.0,18,0.00,,,0.00,Wunderground v.1.15,2013-05-27 20:40:00,
2013-05-27 14:45:00,82.7,34.9,29.55,SW,216,11.0,12.0,18,0.00,,,0.00,Wunderground v.1.15,2013-05-27 20:45:00,
2013-05-27 14:55:00,83.2,33.8,29.55,West,280,11.0,14.0,17,0.00,,,0.00,Wunderground v.1.15,2013-05-27 20:55:00,
2013-05-27 15:00:00,83.2,35.3,29.55,West,267,11.0,11.0,18,0.00,,,0.00,Wunderground v.1.15,2013-05-27 21:00:00,
2013-05-27 15:05:00,83.3,35.4,29.57,West,261,8.0,14.0,18,0.00,,,0.00,Wunderground v.1.15,2013-05-27 21:05:00,
2013-05-27 15:15:00,83.6,34.2,29.56,WSW,246,14.0,16.0,17,0.00,,,0.00,Wunderground v.1.15,2013-05-27 21:15:00,
2013-05-27 15:20:00,83.6,34.2,29.55,WSW,244,13.0,18.0,17,0.00,,,0.00,Wunderground v.1.15,2013-05-27 21:20:00,
2013-05-27 15:25:00,83.1,33.8,29.56,West,266,14.0,18.0,17,0.00,,,0.00,Wunderground v.1.15,2013-05-27 21:25:00,
2013-05-27 15:30:00,82.9,33.6,29.56,WSW,244,16.0,16.0,17,0.00,,,0.00,Wunderground v.1.15,2013-05-27 21:30:00,
2013-05-27 15:35:00,83.1,33.8,29.56,West,273,13.0,16.0,17,0.00,,,0.00,Wunderground v.1.15,2013-05-27 21:35:00,
2013-05-27 15:40:00,83.4,34.0,29.55,West,259,9.0,15.0,17,0.00,,,0.00,Wunderground v.1.15,2013-05-27 21:40:00,
2013-05-27 15:45:00,83.2,33.8,29.55,SW,228,12.0,15.0,17,0.00,,,0.00,Wunderground v.1.15,2013-05-27 21:45:00,
2013-05-27 15:50:00,83.1,33.8,29.55,SW,228,12.0,12.0,17,0.00,,,0.00,Wunderground v.1.15,2013-05-27 21:50:00,
2013-05-27 16:00:00,83.9,35.8,29.53,WNW,283,9.0,13.0,18,0.00,,,0.00,Wunderground v.1.15,2013-05-27 22:00:00,
2013-05-27 16:10:00,83.9,34.4,29.54,SW,230,16.0,16.0,17,0.00,,,0.00,Wunderground v.1.15,2013-05-27 22:10:00,
2013-05-27 16:20:00,83.7,34.2,29.54,West,261,12.0,12.0,17,0.00,,,0.00,Wunderground v.1.15,2013-05-27 22:20:00,
2013-05-27 16:25:00,83.2,33.8,29.53,WSW,240,13.0,18.0,17,0.00,,,0.00,Wunderground v.1.15,2013-05-27 22:25:00,
2013-05-27 16:35:00,83.4,34.0,29.53,WSW,242,12.0,14.0,17,0.00,,,0.00,Wunderground v.1.15,2013-05-27 22:35:00,
2013-05-27 16:40:00,83.5,35.5,29.52,West,269,12.0,13.0,18,0.00,,,0.00,Wunderground v.1.15,2013-05-27 22:40:00,
2013-05-27 16:50:00,83.8,35.8,29.52,West,269,12.0,13.0,18,0.00,,,0.00,Wunderground v.1.15,2013-05-27 22:50:00,
2013-05-27 17:00:00,83.6,32.6,29.52,WSW,256,14.0,21.0,16,0.00,,,0.00,Wunderground v.1.15,2013-05-27 23:00:00,
2013-05-27 17:05:00,83.4,34.0,29.53,SW,221,10.0,21.0,17,0.00,,,0.00,Wunderground v.1.15,2013-05-27 23:05:00,
2013-05-27 17:15:00,83.3,33.9,29.52,WSW,248,11.0,18.0,17,0.00,,,0.00,Wunderground v.1.15,2013-05-27 23:15:00,
2013-05-27 17:20:00,83.4,34.0,29.52,West,263,14.0,17.0,17,0.00,,,0.00,Wunderground v.1.15,2013-05-27 23:20:00,
2013-05-27 17:25:00,83.0,33.7,29.52,WSW,244,14.0,17.0,17,0.00,,,0.00,Wunderground v.1.15,2013-05-27 23:25:00,
2013-05-27 17:35:00,83.2,33.8,29.52,SW,233,9.0,14.0,17,0.00,,,0.00,Wunderground v.1.15,2013-05-27 23:35:00,
2013-05-27 17:40:00,83.1,33.8,29.52,SW,214,8.0,12.0,17,0.00,,,0.00,Wunderground v.1.15,2013-05-27 23:40:00,
2013-05-27 17:50:00,81.8,32.7,29.53,SW,236,12.0,13.0,17,0.00,,,0.00,Wunderground v.1.15,2013-05-27 23:50:00,
2013-05-27 17:55:00,81.5,32.5,29.52,WSW,254,12.0,13.0,17,0.00,,,0.00,Wunderground v.1.15,2013-05-27 23:55:00,
2013-05-27 18:05:00,82.1,34.4,29.51,West,264,11.0,12.0,18,0.00,,,0.00,Wunderground v.1.15,2013-05-28 00:05:00,
2013-05-27 18:15:00,82.3,33.1,29.50,West,260,12.0,14.0,17,0.00,,,0.00,Wunderground v.1.15,2013-05-28 00:15:00,
2013-05-27 18:20:00,82.5,33.3,29.50,West,259,11.0,12.0,17,0.00,,,0.00,Wunderground v.1.15,2013-05-28 00:20:00,
2013-05-27 18:25:00,82.3,33.1,29.50,SW,225,11.0,12.0,17,0.00,,,0.00,Wunderground v.1.15,2013-05-28 00:25:00,
2013-05-27 18:30:00,82.1,32.9,29.50,WSW,250,13.0,16.0,17,0.00,,,0.00,Wunderground v.1.15,2013-05-28 00:30:00,
2013-05-27 18:35:00,81.8,31.2,29.50,WNW,283,13.0,16.0,16,0.00,,,0.00,Wunderground v.1.15,2013-05-28 00:35:00,
2013-05-27 18:40:00,81.8,32.7,29.50,West,264,11.0,19.0,17,0.00,,,0.00,Wunderground v.1.15,2013-05-28 00:40:00,
2013-05-27 18:50:00,81.4,32.4,29.49,West,261,11.0,11.0,17,0.00,,,0.00,Wunderground v.1.15,2013-05-28 00:50:00,
2013-05-27 18:55:00,80.8,30.4,29.51,SW,230,11.0,11.0,16,0.00,,,0.00,Wunderground v.1.15,2013-05-28 00:55:00,
2013-05-27 19:00:00,80.8,31.9,29.51,SW,236,11.0,11.0,17,0.00,,,0.00,Wunderground v.1.15,2013-05-28 01:00:00,
2013-05-27 19:05:00,80.9,32.0,29.45,SW,235,10.0,11.0,17,0.00,,,0.00,Wunderground v.1.15,2013-05-28 01:05:00,
2013-05-27 19:15:00,80.4,31.6,29.45,WSW,240,11.0,12.0,17,0.00,,,0.00,Wunderground v.1.15,2013-05-28 01:15:00,
2013-05-27 19:20:00,79.9,32.6,29.45,WSW,243,10.0,13.0,18,0.00,,,0.00,Wunderground v.1.15,2013-05-28 01:20:00,
2013-05-27 19:25:00,79.6,32.3,29.46,WSW,241,10.0,13.0,18,0.00,,,0.00,Wunderground v.1.15,2013-05-28 01:25:00,
2013-05-27 19:30:00,79.6,32.3,29.46,SW,236,8.0,8.0,18,0.00,,,0.00,Wunderground v.1.15,2013-05-28 01:30:00,
2013-05-27 19:35:00,79.4,30.8,29.46,West,275,7.0,14.0,17,0.00,,,0.00,Wunderground v.1.15,2013-05-28 01:35:00,
2013-05-27 19:45:00,78.7,31.6,29.47,WSW,250,8.0,8.0,18,0.00,,,0.00,Wunderground v.1.15,2013-05-28 01:45:00,
2013-05-27 19:50:00,78.3,31.3,29.47,WSW,242,7.0,9.0,18,0.00,,,0.00,Wunderground v.1.15,2013-05-28 01:50:00,
2013-05-27 19:55:00,77.8,30.9,29.47,WSW,254,7.0,9.0,18,0.00,,,0.00,Wunderground v.1.15,2013-05-28 01:55:00,
2013-05-27 20:00:00,77.5,30.6,29.47,SW,229,8.0,11.0,18,0.00,,,0.00,Wunderground v.1.15,2013-05-28 02:00:00,
2013-05-27 20:05:00,77.5,30.6,29.44,WSW,237,9.0,11.0,18,0.00,,,0.00,Wunderground v.1.15,2013-05-28 02:05:00,
2013-05-27 20:15:00,76.9,30.1,29.45,WSW,252,7.0,8.0,18,0.00,,,0.00,Wunderground v.1.15,2013-05-28 02:15:00,
2013-05-27 20:20:00,76.5,29.8,29.45,WSW,249,6.0,6.0,18,0.00,,,0.00,Wunderground v.1.15,2013-05-28 02:20:00,
2013-05-27 20:25:00,76.2,30.9,29.46,West,259,5.0,6.0,19,0.00,,,0.00,Wunderground v.1.15,2013-05-28 02:25:00,
2013-05-27 20:30:00,75.8,30.6,29.46,WNW,282,4.0,4.0,19,0.00,,,0.00,Wunderground v.1.15,2013-05-28 02:30:00,
2013-05-27 20:35:00,75.6,30.4,29.46,WNW,290,3.0,4.0,19,0.00,,,0.00,Wunderground v.1.15,2013-05-28 02:35:00,
2013-05-27 20:45:00,74.9,29.8,29.46,NW,313,1.0,2.0,19,0.00,,,0.00,Wunderground v.1.15,2013-05-28 02:45:00,
2013-05-27 20:50:00,74.4,31.9,29.46,NW,313,1.0,1.0,21,0.00,,,0.00,Wunderground v.1.15,2013-05-28 02:50:00,
2013-05-27 20:55:00,73.4,32.2,29.47,NW,313,0.0,1.0,22,0.00,,,0.00,Wunderground v.1.15,2013-05-28 02:55:00,
2013-05-27 21:00:00,72.4,32.5,29.47,NW,313,0.0,0.0,23,0.00,,,0.00,Wunderground v.1.15,2013-05-28 03:00:00,
2013-05-27 21:05:00,71.5,30.6,29.44,West,264,1.0,1.0,22,0.00,,,0.00,Wunderground v.1.15,2013-05-28 03:05:00,
2013-05-27 21:15:00,71.9,31.0,29.44,West,259,2.0,2.0,22,0.00,,,0.00,Wunderground v.1.15,2013-05-28 03:15:00,
2013-05-27 21:20:00,72.0,31.0,29.44,West,264,2.0,4.0,22,0.00,,,0.00,Wunderground v.1.15,2013-05-28 03:20:00,
2013-05-27 21:25:00,71.6,30.7,29.44,West,265,2.0,4.0,22,0.00,,,0.00,Wunderground v.1.15,2013-05-28 03:25:00,
2013-05-27 21:30:00,71.0,31.3,29.45,West,265,1.0,1.0,23,0.00,,,0.00,Wunderground v.1.15,2013-05-28 03:30:00,
2013-05-27 21:35:00,70.4,29.7,29.45,West,266,0.0,1.0,22,0.00,,,0.00,Wunderground v.1.15,2013-05-28 03:35:00,
2013-05-27 21:40:00,69.9,29.3,29.45,West,268,0.0,0.0,22,0.00,,,0.00,Wunderground v.1.15,2013-05-28 03:40:00,
2013-05-27 21:50:00,69.9,29.3,29.46,West,275,0.0,0.0,22,0.00,,,0.00,Wunderground v.1.15,2013-05-28 03:50:00,
2013-05-27 21:55:00,69.8,29.2,29.46,West,275,0.0,0.0,22,0.00,,,0.00,Wunderground v.1.15,2013-05-28 03:55:00,
2013-05-27 22:00:00,69.5,30.0,29.46,West,275,0.0,0.0,23,0.00,,,0.00,Wunderground v.1.15,2013-05-28 04:00:00,
2013-05-27 22:05:00,69.2,29.8,29.45,West,275,0.0,0.0,23,0.00,,,0.00,Wunderground v.1.15,2013-05-28 04:05:00,
2013-05-27 22:10:00,68.7,33.3,29.46,West,279,0.0,0.0,27,0.00,,,0.00,Wunderground v.1.15,2013-05-28 04:10:00,
2013-05-27 22:15:00,67.4,32.2,29.47,NE,53,1.0,1.0,27,0.00,,,0.00,Wunderground v.1.15,2013-05-28 04:15:00,
2013-05-27 22:20:00,66.7,31.6,29.47,NE,53,1.0,1.0,27,0.00,,,0.00,Wunderground v.1.15,2013-05-28 04:20:00,
2013-05-27 22:25:00,66.2,32.1,29.48,NE,53,1.0,1.0,28,0.00,,,0.00,Wunderground v.1.15,2013-05-28 04:25:00,
2013-05-27 22:30:00,65.5,32.4,29.47,NE,53,1.0,1.0,29,0.00,,,0.00,Wunderground v.1.15,2013-05-28 04:30:00,
2013-05-27 22:35:00,64.5,32.4,29.48,NE,52,1.0,1.0,30,0.00,,,0.00,Wunderground v.1.15,2013-05-28 04:35:00,
2013-05-27 22:40:00,63.9,31.8,29.48,NE,52,1.0,1.0,30,0.00,,,0.00,Wunderground v.1.15,2013-05-28 04:40:00,
2013-05-27 22:45:00,63.1,34.3,29.48,NNE,17,0.0,2.0,34,0.00,,,0.00,Wunderground v.1.15,2013-05-28 04:45:00,
2013-05-27 22:50:00,62.0,33.3,29.49,NNE,20,1.0,1.0,34,0.00,,,0.00,Wunderground v.1.15,2013-05-28 04:50:00,
2013-05-27 22:55:00,61.3,32.7,29.49,NNE,21,0.0,1.0,34,0.00,,,0.00,Wunderground v.1.15,2013-05-28 04:55:00,
2013-05-27 23:00:00,60.7,32.1,29.49,NNE,21,0.0,0.0,34,0.00,,,0.00,Wunderground v.1.15,2013-05-28 05:00:00,
2013-05-27 23:05:00,60.3,32.5,29.48,NNE,21,0.0,0.0,35,0.00,,,0.00,Wunderground v.1.15,2013-05-28 05:05:00,
2013-05-27 23:15:00,59.8,32.1,29.48,NNE,21,0.0,0.0,35,0.00,,,0.00,Wunderground v.1.15,2013-05-28 05:15:00,
2013-05-27 23:25:00,58.7,31.8,29.49,NNE,21,0.0,0.0,36,0.00,,,0.00,Wunderground v.1.15,2013-05-28 05:25:00,
2013-05-27 23:30:00,58.5,31.6,29.49,NNE,21,0.0,0.0,36,0.00,,,0.00,Wunderground v.1.15,2013-05-28 05:30:00,
2013-05-27 23:35:00,58.3,32.1,29.50,NNE,21,0.0,0.0,37,0.00,,,0.00,Wunderground v.1.15,2013-05-28 05:35:00,
2013-05-27 23:40:00,58.2,32.7,29.50,NNW,331,0.0,3.0,38,0.00,,,0.00,Wunderground v.1.15,2013-05-28 05:40:00,
2013-05-27 23:45:00,57.7,34.1,29.50,NNW,342,2.0,4.0,41,0.00,,,0.00,Wunderground v.1.15,2013-05-28 05:45:00,
2013-05-27 23:55:00,56.4,33.0,29.51,NNW,336,2.0,4.0,41,0.00,,,0.00,Wunderground v.1.15,2013-05-28 05:55:00,